Hourly Weather Abadiania

Today, 24 January, Sunday

Time Temperature Precipitation Wind Pressure Humidity
00:00 +19°C° 0 mm 2 mps 676 mmHg 94%
01:00 +18°C° 0 mm 2 mps 675 mmHg 94%
02:00 +19°C° 0 mm 1 mps 675 mmHg 94%
03:00 +18°C° 0 mm 1 mps 675 mmHg 95%
04:00 +17°C° 0 mm 2 mps 675 mmHg 94%
05:00 +17°C° 0 mm 2 mps 675 mmHg 93%
06:00 +17°C° 0 mm 2 mps 675 mmHg 93%
07:00 +18°C° 0 mm 3 mps 676 mmHg 88%
08:00 +20°C° 0 mm 3 mps 676 mmHg 83%
09:00 +22°C° 0 mm 4 mps 677 mmHg 78%
10:00 +23°C° 0 mm 4 mps 677 mmHg 72%
11:00 +26°C° 0 mm 3 mps 677 mmHg 66%
12:00 +28°C° 0 mm 3 mps 677 mmHg 60%
13:00 +28°C° 0.1 mm 3 mps 677 mmHg 60%
14:00 +28°C° 0.1 mm 2 mps 676 mmHg 60%
15:00 +28°C° 0.1 mm 2 mps 675 mmHg 59%
16:00 +27°C° 0.8 mm 2 mps 675 mmHg 67%
17:00 +26°C° 0.8 mm 2 mps 674 mmHg 75%
18:00 +24°C° 0.8 mm 1 mps 674 mmHg 83%
19:00 +23°C° 0.1 mm 1 mps 674 mmHg 86%
20:00 +21°C° 0.1 mm 1 mps 674 mmHg 88%
21:00 +20°C° 0.1 mm 1 mps 674 mmHg 90%
22:00 +20°C° 0 mm 1 mps 675 mmHg 91%
23:00 +19°C° 0 mm 1 mps 675 mmHg 92%

Tomorrow, 25 January, Monday

Time Temperature Precipitation Wind Pressure Humidity
00:00 +19°C° 0 mm 1 mps 675 mmHg 93%
01:00 +19°C° 0 mm 1 mps 675 mmHg 93%
02:00 +19°C° 0 mm 1 mps 674 mmHg 93%
03:00 +18°C° 0 mm 1 mps 674 mmHg 93%
04:00 +18°C° 0 mm 1 mps 674 mmHg 94%
05:00 +18°C° 0 mm 1 mps 674 mmHg 94%
06:00 +18°C° 0 mm 1 mps 674 mmHg 94%
07:00 +19°C° 0 mm 2 mps 675 mmHg 89%
08:00 +21°C° 0 mm 2 mps 676 mmHg 84%
09:00 +24°C° 0 mm 2 mps 677 mmHg 80%
10:00 +25°C° 0.3 mm 2 mps 677 mmHg 75%
11:00 +26°C° 0.3 mm 2 mps 677 mmHg 70%
12:00 +28°C° 0.3 mm 2 mps 677 mmHg 64%
13:00 +27°C° 2.6 mm 2 mps 676 mmHg 68%
14:00 +27°C° 2.6 mm 1 mps 675 mmHg 72%
15:00 +26°C° 2.6 mm 1 mps 674 mmHg 76%
16:00 +25°C° 1.2 mm 1 mps 674 mmHg 78%
17:00 +25°C° 1.2 mm 1 mps 674 mmHg 81%
18:00 +22°C° 1.2 mm 0 mps 674 mmHg 84%
19:00 +23°C° 0.1 mm 1 mps 674 mmHg 86%
20:00 +22°C° 0.1 mm 1 mps 674 mmHg 88%
21:00 +21°C° 0.1 mm 1 mps 674 mmHg 90%
22:00 +21°C° 0 mm 1 mps 675 mmHg 90%
23:00 +20°C° 0 mm 1 mps 675 mmHg 90%

Day after tomorrow, 26 January, Tuesday

Time Temperature Precipitation Wind Pressure Humidity
00:00 +20°C° 0 mm 1 mps 675 mmHg 90%
01:00 +20°C° 0 mm 1 mps 674 mmHg 90%
02:00 +20°C° 0 mm 1 mps 674 mmHg 91%
03:00 +19°C° 0 mm 1 mps 674 mmHg 91%
04:00 +19°C° 0 mm 1 mps 674 mmHg 91%
05:00 +19°C° 0 mm 1 mps 674 mmHg 90%
06:00 +19°C° 0 mm 1 mps 674 mmHg 89%
07:00 +21°C° 0 mm 1 mps 675 mmHg 85%
08:00 +23°C° 0 mm 2 mps 676 mmHg 80%
09:00 +25°C° 0 mm 3 mps 677 mmHg 76%
10:00 +26°C° 0.2 mm 3 mps 677 mmHg 72%
11:00 +27°C° 0.2 mm 3 mps 677 mmHg 69%
12:00 +28°C° 0.2 mm 3 mps 677 mmHg 66%
13:00 +28°C° 1.6 mm 3 mps 676 mmHg 66%
14:00 +28°C° 1.6 mm 2 mps 675 mmHg 67%
15:00 +28°C° 1.6 mm 2 mps 675 mmHg 68%
16:00 +27°C° 2.2 mm 1 mps 675 mmHg 74%
17:00 +25°C° 2.2 mm 1 mps 674 mmHg 81%
18:00 +22°C° 2.2 mm 0 mps 674 mmHg 88%
19:00 +23°C° 0.1 mm 1 mps 674 mmHg 89%
20:00 +22°C° 0.1 mm 1 mps 675 mmHg 90%
21:00 +21°C° 0.1 mm 1 mps 675 mmHg 91%
22:00 +21°C° 0 mm 1 mps 675 mmHg 91%
23:00 +21°C° 0 mm 1 mps 675 mmHg 92%

27 January, Wednesday

Time Temperature Precipitation Wind Pressure Humidity
00:00 +18°C° 0 mm 0 mps 675 mmHg 92%
01:00 +20°C° 0 mm 1 mps 675 mmHg 92%
02:00 +20°C° 0 mm 1 mps 674 mmHg 92%
03:00 +20°C° 0 mm 1 mps 674 mmHg 92%
04:00 +20°C° 0 mm 1 mps 674 mmHg 92%
05:00 +20°C° 0 mm 1 mps 674 mmHg 93%
06:00 +19°C° 0 mm 1 mps 675 mmHg 93%
07:00 +21°C° 0 mm 1 mps 675 mmHg 88%
08:00 +23°C° 0 mm 2 mps 676 mmHg 83%
09:00 +25°C° 0 mm 3 mps 677 mmHg 78%
10:00 +26°C° 0.3 mm 2 mps 677 mmHg 73%
11:00 +27°C° 0.3 mm 2 mps 677 mmHg 69%
12:00 +29°C° 0.3 mm 2 mps 677 mmHg 64%
13:00 +29°C° 1.2 mm 1 mps 676 mmHg 66%
14:00 +28°C° 1.2 mm 1 mps 676 mmHg 68%
15:00 +28°C° 1.2 mm 1 mps 675 mmHg 70%
16:00 +27°C° 1.3 mm 1 mps 675 mmHg 74%
17:00 +25°C° 1.3 mm 0 mps 674 mmHg 79%
18:00 +24°C° 1.3 mm 0 mps 674 mmHg 84%
19:00 +22°C° 0.2 mm 0 mps 674 mmHg 85%
20:00 +21°C° 0.2 mm 0 mps 674 mmHg 86%
21:00 +20°C° 0.2 mm 0 mps 674 mmHg 87%
22:00 +19°C° 0.2 mm 0 mps 674 mmHg 88%
23:00 +19°C° 0.2 mm 0 mps 675 mmHg 89%

28 January, Thursday

Time Temperature Precipitation Wind Pressure Humidity
00:00 +19°C° 0.2 mm 0 mps 675 mmHg 91%
01:00 +18°C° 0.4 mm 0 mps 674 mmHg 91%
02:00 +18°C° 0.4 mm 0 mps 674 mmHg 91%
03:00 +18°C° 0.4 mm 0 mps 674 mmHg 91%
04:00 +18°C° 0 mm 0 mps 674 mmHg 92%
05:00 +18°C° 0 mm 0 mps 674 mmHg 92%
06:00 +18°C° 0 mm 0 mps 674 mmHg 93%
07:00 +21°C° 0.1 mm 1 mps 675 mmHg 88%
08:00 +23°C° 0.1 mm 1 mps 675 mmHg 84%
09:00 +25°C° 0.1 mm 1 mps 676 mmHg 80%
10:00 +26°C° 0.3 mm 2 mps 676 mmHg 72%
11:00 +28°C° 0.3 mm 2 mps 676 mmHg 65%
12:00 +29°C° 0.3 mm 2 mps 676 mmHg 58%
13:00 +29°C° 0.5 mm 2 mps 676 mmHg 62%
14:00 +28°C° 0.5 mm 2 mps 675 mmHg 65%
15:00 +28°C° 0.5 mm 2 mps 674 mmHg 68%

29 January, Friday

Time Temperature Precipitation Wind Pressure Humidity
Show more